User: anonymous   Login
Location: Adrasan
(36.3319°N, 30.4314°E)
Time: 01:08:43
(UTC+00:00)
Language:

Gbstr 26 Del rocket - Orbit

View from above orbital plane
View from above orbital plane
View from above satellite
View from above satellite

Ground track
Ground track

The orbit data is extracted from the following two-line orbital elements,

1 25876U 99041E   24108.48730216  .00003080  00000-0  54652-3 0  9993
2 25876  51.7603 174.6582 0518839 113.8593 251.7591 14.07974992265509
Epoch (UTC): 17 April 2024 11:41:42
Eccentricity: 0.0518839
inclination: 51.7603°
perigee height: 490 km
apogee height: 1242 km
right ascension of ascending node: 174.6582°
argument of perigee: 113.8593°
revolutions per day: 14.07974992
mean anomaly at epoch: 251.7591°
orbit number at epoch: 26550

The dashed part of the orbit path shows where the satellite is in the earth's shadow,  

DLR